2024-173L

Last updated on Fri Oct 25 2024 00:02:04 GMT+0000 (Coordinated Universal Time)

1 61237U 24173L 24298.55741673 .00052239 00000+0 12311-2 0 9999 2 61237 97.6752 12.7814 0084927 206.1589 153.5354 15.37987129 4711
UTC large
Height (km)
Speed (km/s)
/
Latitude / Longitude
Inclination (degrees)
Orbital Period (minutes)
Azimuth
Elevation
Range (km)
Doppler Factor

Next 0 passes for location: London (51.5072 / 0.1276)

Sorry there are no passes over London.